Weather in Leeuwarden

Netherlands     53°12′00″N   5°47′32″E
temp.,
°C
wind,
m/s
gust,
m/s
humid.,
%
clouds,
%
prec.,
mm/h
press.,
hPa
HPBL,
m
5 march, fri
fri501:00+2nne5107350 0.0 1025382
04:00+1nne59710 0.0 1026298
07:000nne36690 0.0 1028195
10:00+4nne45620 0.0 10291098
13:00+5n45580 0.0 10311071
16:00+5n45640 0.0 1031983
19:00+2n34780 0.0 103286
22:00+1nnw238128 0.0 103431
6 march, sat
sat601:00+3wnw237363 0.1 103451
04:00+1nnw348457 0.0 103362
07:00+1nw238746 0.0 103452
10:00+5nw3474100 0.1 1034648
13:00+6nw436783 0.1 1034855
16:00+5nw456833 0.0 1033796
19:00+2wnw348317 0.0 103284
22:00+1wnw33850 0.0 103190
7 march, sun
sun701:00+1w33871 0.0 1030113
04:00+1w35870 0.0 1028135
07:00+1w36880 0.0 1027161
10:00+4wnw467233 0.1 1026955
13:00+5wnw567267 0.1 10251015
16:00+5wnw567530 0.1 1023777
19:00+4nw488865 0.2 1023436
22:00+3wnw349496 0.0 102384
8 march, mon
mon801:00+4nw479398 0.1 1023272
04:00+4nw3692100 0.1 1022202
07:00+4nw2391100 0.1 102278
10:00+6nnw1282100 0.1 1023474
13:00+6wnw2279100 0.1 1024527
16:00+5w3494100 0.3 1023277
19:00+5sw4697100 1.1 1022290
22:00+5w4892100 0.5 1022362
9 march, tue
tue901:00+5wsw4892100 0.9 1021390
04:00+5wsw4892100 0.1 1020300
07:00+3wsw369596 0.1 1020118
10:00+7wsw477920 0.0 1021556
13:00+8wsw686910 0.0 1021925
16:00+8wsw7107145 0.0 1019932
19:00+4sw5128356 0.0 1018443
22:00+4ssw6148279 0.0 1017475